COSMOS 412

Satellite information

Favourite Embed

Satellite Type and Status

PAYLOADIN ORBIT

Key statistics

Satellite COSMOS 412 at a glance.

Uptime

19726

Days in orbit

Revolutions

≈ 12.4

Per day

Orbit

LEO

Low Earth Orbit

Inclination

74.0

Latest

Satellite identification and parameters

Extended collection of information and parameters for COSMOS 412.

Object identification

Identified? True

Debris? False

Object name: COSMOS 412

International designator: 1971-041B

Object number (NORAD): 5211

Object ID (CCSDS): 5211

Country: COMMONWEALTH OF INDEPENDENT STATES (CIS)

Current information (Y/N): Y

RCS size: MEDIUM

Orbital parameters

Period: 116.141 minutes

Inclination: 74.0143 deg

SMA: 7885.26 km

Apoapsis: 1535.065 km

Periapsis: 1479.185 km

RAAN: 271.9176 deg

Eccentricy: 0.0035433

Argument of periapsis: 328.7842 deg

Mean anomaly: 97.417 deg

Mean motion: 12.39877409 rev/day

Mean motion (dot): -0.00000018 rev/day2

B* drag term: -0.000020965 1/REarth

Two-line elements (TLE)

Creation date: May 9, 2025, 2:46 a.m.

Reference frame: TEME

Reference center: EARTH

Epoch: May 8, 2025, 12:27 p.m. UTC

TLE line 0: 0 COSMOS 412

TLE line 1: 1 05211U 71041B 25128.51905481 -.00000018 00000-0 -20965-4 0 9990

TLE line 2: 2 05211 74.0143 271.9176 0035433 328.7842 97.4170 12.39877409683404

Live tracking on map

Real-time ground track for satellite COSMOS 412.

In-orbit conjunctions

A list of the most updated potential collisions computed for object COSMOS 412.

Target Orbit TCA Probability of collision Miss distance Type
COSMOS 1823 DEB LEO 2025-01-08 00:24:39 0.0004985273 191.0 (m) DEBRIS

Associated space launch

Military communications satellites

COSMOS 412 was lifted into orbit during the mission ‘Kosmos-3M | Strela-1M 9-16’, on board a Kosmos-3M space rocket.

The launch took place on May 7, 1971, 2:20 p.m. from 132/1 (132L).

For more information about the launch, click the button.

Launch to space Kosmos-3M | Strela-1M 9-16
Kosmos-3M | Strela-1M 9-16

Agency: N/A

Status: Launch Successful

Launch date: May 7, 1971, 2:20 p.m. UTC

Rocket: Kosmos-3M

Launch pad: 132/1 (132L)

Location: Plesetsk Cosmodrome, Russian Federation

...

Latest news about this satellite

There are no fresh news available about this satellite. Check back as we update our databases every day.


Newsletter sign-up

Weekly statistics, charts and insights to help you stay on top of the space industry.